Location: Unspecified
(0.0000°N, 0.0000°E)
Time: 00:04:32
(UTC+00:00)

STARLINK-1273 - Pass Details

Date: 15 February 2026
Orbit: 434 x 436 km, 53.1° (Epoch: 7 March)

Event Time Altitude Azimuth Distance (km) Brightness Sun altitude
Rises 19:06:18 0° 336° (NNW) 2,427 7.1 -12.7°
Reaches altitude 10° 19:08:29 10° 344° (NNW) 1,557 6.0 -13.3°
Maximum altitude 19:11:49 42° 56° (NE) 640 3.5 -14.1°
Enters shadow 19:13:48 21° 118° (ESE) 1,061 4.6 -14.6°
